Wind_Speed
24 22 22 21 22 21 19 18 19 20 21 22 22 23 23 22 22 21 22 23 25 26 28 31 31 29 27 26 25 23 21 19 17 17 16 15 15 16 17 17 18 17 16
23 23 22 22 21 20 18 18 19 19 21 22 23 24 24 24 23 24 24 24 24 24 25 28 32 33 31 30 29 27 26 23 21 20 19 18 18 17 17 17 18 17 17
22 21 20 21 20 19 18 18 19 20 21 22 23 23 24 24 24 25 25 25 25 25 25 26 30 33 33 32 32 31 30 28 26 24 22 21 20 19 19 18 18 18 17
20 19 18 18 19 19 19 19 19 21 21 22 21 20 20 21 22 23 23 24 25 25 25 26 28 31 32 32 33 33 33 32 31 29 27 25 24 22 21 20 20 20 19
18 18 17 17 18 18 18 18 20 20 20 19 17 17 17 18 19 20 21 22 23 24 25 26 27 29 31 31 32 33 34 35 35 34 32 30 28 26 24 24 23 22 22
18 18 17 16 16 16 16 17 17 18 17 16 15 15 15 15 15 16 17 18 19 21 23 25 26 27 29 31 31 32 34 36 37 37 37 35 33 30 28 27 26 25 25
19 18 17 16 15 15 15 15 15 16 16 16 15 15 15 14 13 14 15 16 17 19 22 25 27 27 28 29 29 31 33 34 36 38 40 40 38 35 32 30 29 28 28
19 18 18 17 16 15 15 15 16 17 18 18 17 16 16 15 14 13 13 14 16 18 21 25 28 29 29 28 29 29 30 32 35 37 39 42 42 40 36 33 31 30 30
17 18 18 17 17 16 16 17 17 18 20 20 20 19 18 18 17 16 15 15 15 17 20 23 26 28 28 28 27 27 28 31 32 34 37 42 44 43 39 36 34 32 32
18 18 19 19 19 19 19 19 19 20 21 23 23 22 21 19 19 20 18 16 15 17 18 21 24 26 27 27 27 27 27 29 30 31 33 39 43 43 41 38 36 34 33
20 20 21 22 22 22 22 22 22 23 24 25 26 25 24 22 20 19 21 19 17 17 18 19 21 24 26 26 26 26 26 27 28 29 32 36 41 43 42 39 38 36 34
24 24 24 24 25 25 26 25 25 26 27 27 27 27 26 25 23 20 20 21 20 19 18 19 21 23 25 26 26 26 26 26 27 28 29 32 36 39 39 38 37 35 34
32 30 29 28 29 29 29 29 28 28 29 29 29 29 28 27 25 23 21 20 20 21 20 20 21 23 24 25 27 27 26 25 25 26 26 27 30 32 31 32 33 32 31
42 39 37 36 35 35 34 33 32 31 31 31 31 30 29 29 28 26 25 22 21 22 22 21 21 23 24 25 27 28 28 25 23 22 22 22 22 23 24 26 28 28 28
51 49 47 45 43 42 40 39 37 36 35 34 33 32 31 31 30 29 27 25 23 22 23 22 22 23 24 25 26 27 27 24 21 20 19 19 19 19 21 24 25 26 28
56 56 55 54 52 50 47 45 42 41 40 38 36 35 34 33 32 31 30 28 25 23 23 24 22 22 23 25 26 26 23 21 19 20 20 21 22 23 24 26 27 28 29
61 60 60 59 59 57 54 51 48 46 44 42 40 38 36 35 34 34 32 30 27 24 22 24 22 21 23 25 26 27 26 23 23 23 23 23 24 25 26 28 29 31 31
66 65 64 63 62 61 59 57 53 51 48 46 44 42 40 37 35 34 33 30 28 25 22 22 22 21 22 24 27 29 28 27 26 26 25 25 25 26 27 28 29 30 31
72 71 69 68 66 65 63 60 58 55 53 50 48 44 42 39 36 35 33 31 29 26 23 22 22 21 21 23 25 28 29 28 28 27 26 26 26 26 25 25 25 26 27
69 73 74 72 71 69 66 63 60 57 55 52 49 46 42 41 39 37 34 31 29 27 24 22 22 20 20 21 23 25 27 27 27 27 26 26 25 24 23 23 23 23 22
53 61 68 72 74 73 71 68 64 61 57 53 50 47 43 41 40 38 36 33 30 27 25 23 22 20 18 18 21 23 25 25 26 26 26 25 25 24 23 23 23 22 22
37 41 47 55 64 69 72 72 69 65 61 56 52 48 45 43 42 40 38 35 31 27 24 23 22 20 18 17 19 21 22 23 24 24 25 25 25 24 24 23 23 23 22
33 32 33 36 43 53 62 68 71 69 66 61 55 50 47 44 43 42 40 37 32 28 24 23 22 19 17 16 16 18 19 21 21 23 24 25 25 24 23 23 23 24 24
36 33 31 30 31 35 42 51 60 66 67 64 60 54 50 47 44 43 42 39 35 29 25 23 21 18 16 15 15 17 18 19 20 20 20 21 22 23 22 22 22 22 21
39 36 35 34 32 31 32 37 43 53 60 63 62 58 54 51 46 44 43 41 37 32 26 23 20 17 15 15 15 16 17 18 19 19 19 20 20 20 21 21 21 20 19
42 39 36 35 34 32 31 31 32 38 47 56 60 59 56 54 49 45 44 42 39 34 28 23 19 16 14 14 14 15 15 15 17 19 19 19 20 20 20 20 19 17 16
Wind_Direction
291 290 285 278 274 272 272 273 272 267 264 265 267 271 274 274 272 271 269 265 261 260 254 247 246 249 250 249 249 248 244 239 236 238 241 244 247 250 253 252 252 257 262
290 288 283 277 272 268 266 267 263 259 258 259 262 265 268 270 268 268 268 265 263 262 259 251 246 246 249 250 247 246 245 243 238 236 237 241 245 248 250 249 247 249 255
293 292 287 282 274 267 264 259 256 255 256 257 259 261 264 266 268 267 266 265 262 259 257 252 247 246 248 249 247 245 244 244 242 238 237 238 241 245 247 247 248 247 249
298 296 293 285 276 269 264 256 252 253 254 256 257 260 263 267 269 269 268 267 264 261 257 252 248 246 248 248 246 243 242 243 244 242 240 238 239 241 244 246 249 251 252
301 298 294 286 278 273 267 259 254 253 254 254 254 258 263 268 271 273 272 270 268 264 260 256 252 250 248 247 246 244 243 243 244 245 244 241 239 240 242 244 247 251 254
294 292 290 285 279 275 269 262 257 254 252 250 253 258 264 270 276 278 280 280 278 272 266 261 258 255 252 250 248 246 245 244 246 247 246 243 240 239 240 242 244 249 252
281 281 280 278 277 274 269 262 257 253 250 250 254 260 266 272 281 284 285 284 281 276 269 264 261 258 255 254 253 251 248 248 250 250 247 244 241 240 240 241 243 246 249
270 269 268 268 268 265 261 258 257 255 252 249 252 256 264 274 283 290 295 292 284 276 269 264 261 259 256 255 255 253 251 250 251 251 249 244 240 240 241 242 244 247 249
264 260 259 258 259 259 255 254 256 258 257 254 254 261 269 279 287 293 297 298 294 283 273 266 262 261 258 256 255 254 251 250 250 251 249 244 240 240 241 243 245 246 248
264 258 254 251 251 252 251 251 254 258 259 261 263 267 270 275 282 290 295 297 297 290 282 273 266 262 260 257 255 252 252 250 249 248 247 244 240 241 243 244 246 248 249
265 260 257 253 251 249 249 249 251 255 258 262 267 273 276 277 279 283 290 294 295 292 287 280 270 263 260 257 254 252 251 250 246 245 245 242 239 240 241 245 246 247 248
264 261 259 258 256 253 251 251 252 255 258 262 266 272 276 280 282 282 283 288 293 294 289 279 272 264 259 255 253 250 249 248 245 243 242 239 237 238 241 241 244 244 247
266 260 256 255 257 258 256 254 254 256 259 262 265 269 273 277 282 285 284 285 289 293 292 283 272 264 257 252 249 248 247 247 245 241 236 235 235 235 237 237 240 242 245
267 263 258 254 253 255 255 255 255 256 258 260 263 267 270 273 277 282 283 283 286 290 292 287 276 265 256 251 249 246 245 244 244 242 238 237 238 236 235 235 237 240 245
264 262 259 256 253 251 251 253 255 256 257 259 261 264 266 270 272 276 279 280 284 288 290 290 281 268 257 251 249 247 245 243 241 239 241 243 243 242 241 239 241 244 247
262 260 258 256 253 251 250 249 251 254 256 258 260 262 265 268 270 271 274 276 280 284 287 290 286 272 259 250 248 248 245 239 236 239 241 243 244 244 245 245 247 250 251
261 258 256 255 254 252 250 248 248 251 254 257 258 260 263 266 267 268 270 272 275 278 284 288 287 273 259 250 245 245 242 238 235 238 242 244 246 248 249 250 250 250 251
259 256 255 254 253 252 250 248 247 247 250 253 256 258 259 263 263 263 265 268 271 273 278 284 284 275 261 251 244 241 239 236 236 238 242 246 249 251 252 253 253 252 252
256 254 253 252 252 251 251 249 247 245 246 248 251 254 255 256 258 259 259 263 265 267 272 279 282 277 263 251 243 240 238 236 236 239 243 247 251 254 256 255 253 252 250
254 252 250 250 250 250 249 248 246 245 244 245 247 249 250 250 252 253 254 257 259 262 265 273 278 277 267 253 244 240 237 236 238 241 245 249 252 254 255 253 248 245 243
258 252 249 247 247 247 247 247 245 243 243 243 243 244 246 246 246 248 250 251 254 257 260 267 273 275 269 257 248 242 239 238 240 244 247 250 250 250 252 249 244 241 241
265 258 252 248 246 245 245 246 245 243 241 241 241 241 242 243 243 243 245 247 248 253 257 262 268 271 267 258 249 244 243 241 243 245 248 248 249 249 250 244 238 236 237
264 261 257 253 250 247 245 244 244 243 240 239 238 237 237 238 239 240 240 242 245 249 254 258 263 268 265 257 250 247 244 244 244 245 248 248 248 249 245 240 237 234 236
260 258 256 256 255 252 248 246 244 242 239 237 235 234 233 234 237 237 237 239 242 246 250 255 258 261 261 258 251 245 243 243 246 249 247 246 242 238 235 233 231 228 228
257 255 253 254 255 256 254 249 246 241 237 234 232 230 231 231 234 235 234 236 238 241 246 252 254 255 256 254 248 242 243 248 249 250 247 243 236 231 225 220 217 217 219
253 252 250 250 250 252 253 251 250 244 236 230 226 225 226 229 231 233 233 233 234 236 242 247 249 250 250 246 242 239 240 246 250 245 241 236 227 220 214 211 207 210 218
Height
5855 5855 5854 5854 5853 5853 5853 5852 5851 5851 5851 5851 5850 5850 5849 5848 5848 5849 5849 5849 5850 5851 5852 5854 5855 5857 5860 5862 5864 5866 5869 5871 5873 5874 5876 5878 5880 5882 5883 5885 5886 5887 5888
5849 5848 5847 5847 5847 5847 5847 5847 5846 5845 5845 5845 5845 5844 5844 5843 5843 5844 5843 5844 5844 5845 5845 5846 5847 5849 5852 5855 5857 5860 5862 5865 5867 5869 5871 5873 5875 5877 5879 5881 5882 5884 5885
5842 5841 5841 5841 5841 5841 5841 5841 5841 5840 5840 5840 5840 5840 5839 5839 5838 5838 5838 5838 5838 5839 5839 5839 5840 5842 5844 5847 5850 5853 5856 5858 5861 5864 5866 5868 5870 5872 5874 5877 5878 5880 5881
5835 5834 5835 5835 5834 5834 5835 5835 5835 5835 5835 5835 5835 5835 5835 5834 5833 5832 5832 5831 5832 5832 5833 5833 5834 5836 5838 5840 5842 5845 5848 5851 5854 5857 5859 5862 5864 5866 5869 5872 5874 5876 5877
5827 5828 5828 5828 5828 5828 5828 5829 5829 5829 5830 5830 5830 5830 5830 5829 5828 5827 5826 5825 5825 5825 5826 5827 5828 5829 5831 5833 5835 5837 5840 5844 5846 5850 5852 5855 5858 5860 5863 5866 5869 5871 5873
5821 5821 5822 5822 5822 5822 5823 5823 5824 5824 5825 5825 5826 5826 5825 5825 5824 5822 5821 5820 5819 5819 5820 5821 5822 5823 5825 5826 5828 5830 5833 5836 5839 5842 5845 5848 5851 5854 5857 5860 5863 5865 5867
5816 5816 5816 5817 5817 5817 5818 5818 5819 5819 5820 5821 5822 5822 5821 5820 5819 5817 5816 5815 5814 5813 5813 5814 5816 5817 5818 5820 5821 5823 5825 5828 5830 5833 5836 5840 5844 5847 5850 5853 5857 5859 5862
5810 5810 5810 5811 5811 5811 5812 5813 5814 5814 5815 5816 5817 5817 5817 5816 5814 5813 5811 5810 5809 5808 5808 5807 5808 5810 5811 5813 5814 5816 5818 5820 5822 5824 5827 5830 5835 5839 5842 5846 5849 5853 5855
5803 5804 5804 5804 5805 5805 5806 5807 5808 5809 5809 5810 5811 5812 5812 5811 5809 5808 5807 5805 5804 5803 5802 5802 5802 5802 5804 5806 5807 5809 5810 5812 5814 5816 5818 5822 5826 5830 5834 5838 5842 5845 5848
5797 5797 5797 5798 5798 5799 5799 5800 5801 5802 5803 5804 5805 5806 5806 5806 5805 5803 5801 5800 5798 5796 5795 5795 5795 5796 5797 5798 5800 5802 5803 5804 5806 5808 5811 5814 5817 5821 5825 5830 5834 5838 5841
5790 5790 5791 5791 5791 5791 5792 5793 5794 5796 5796 5797 5798 5798 5799 5800 5800 5800 5797 5794 5793 5791 5789 5788 5788 5789 5790 5791 5793 5795 5796 5797 5799 5801 5804 5807 5810 5813 5817 5822 5826 5829 5832
5782 5783 5783 5783 5783 5783 5783 5784 5785 5787 5789 5790 5790 5791 5792 5792 5793 5793 5792 5790 5787 5785 5784 5783 5782 5782 5783 5785 5786 5787 5789 5790 5792 5794 5797 5800 5802 5805 5808 5813 5817 5821 5824
5772 5773 5774 5775 5774 5774 5775 5775 5776 5778 5780 5781 5782 5783 5784 5785 5785 5786 5786 5785 5782 5780 5778 5777 5776 5776 5776 5778 5779 5780 5782 5784 5785 5788 5790 5792 5795 5797 5800 5804 5809 5814 5817
5759 5760 5762 5764 5764 5765 5765 5766 5767 5768 5770 5772 5773 5775 5776 5776 5777 5778 5779 5779 5777 5774 5772 5770 5769 5769 5770 5771 5772 5774 5776 5778 5779 5781 5783 5785 5788 5790 5794 5798 5802 5806 5809
5744 5745 5747 5749 5751 5753 5754 5755 5756 5758 5760 5762 5764 5765 5767 5767 5768 5769 5770 5772 5772 5769 5766 5764 5763 5763 5763 5764 5766 5767 5769 5772 5774 5776 5778 5780 5783 5786 5789 5793 5796 5799 5802
5726 5728 5730 5732 5735 5738 5740 5743 5745 5746 5749 5751 5753 5755 5758 5759 5760 5761 5762 5763 5764 5764 5761 5758 5758 5757 5757 5758 5759 5761 5763 5765 5768 5771 5773 5776 5778 5781 5784 5787 5789 5792 5794
5706 5708 5711 5713 5716 5720 5724 5728 5732 5734 5736 5739 5742 5745 5748 5750 5751 5752 5754 5755 5756 5757 5756 5753 5751 5751 5750 5751 5753 5754 5757 5760 5762 5765 5768 5770 5773 5775 5778 5780 5782 5784 5786
5681 5685 5689 5693 5696 5700 5705 5711 5716 5720 5723 5726 5730 5733 5737 5740 5742 5743 5745 5747 5748 5750 5749 5747 5745 5744 5744 5744 5746 5748 5751 5754 5757 5759 5762 5765 5767 5769 5771 5773 5775 5776 5778
5655 5659 5665 5670 5674 5679 5685 5692 5698 5704 5709 5713 5717 5721 5725 5729 5732 5734 5737 5738 5740 5742 5742 5741 5739 5738 5737 5738 5739 5742 5744 5747 5750 5753 5755 5758 5760 5763 5764 5766 5768 5769 5771
5626 5632 5638 5644 5651 5657 5663 5671 5678 5686 5692 5698 5703 5708 5712 5717 5721 5725 5727 5730 5732 5734 5735 5735 5733 5732 5732 5732 5733 5735 5738 5741 5744 5746 5749 5751 5754 5755 5757 5759 5761 5763 5764
5602 5606 5611 5618 5626 5633 5641 5648 5657 5666 5675 5682 5689 5694 5700 5704 5709 5714 5717 5720 5723 5726 5727 5728 5728 5727 5726 5726 5728 5729 5732 5734 5737 5740 5742 5744 5746 5748 5750 5752 5755 5757 5759
5587 5588 5590 5595 5602 5610 5618 5626 5635 5646 5656 5665 5674 5681 5687 5692 5697 5703 5707 5711 5715 5718 5720 5721 5722 5721 5721 5721 5722 5724 5726 5728 5731 5733 5735 5737 5739 5741 5743 5746 5748 5751 5753
5577 5577 5578 5580 5583 5589 5596 5604 5613 5624 5636 5647 5657 5666 5673 5679 5685 5691 5697 5701 5706 5710 5713 5714 5715 5715 5715 5716 5717 5718 5720 5722 5724 5726 5728 5730 5732 5734 5737 5739 5742 5745 5747
5565 5566 5567 5569 5571 5575 5578 5584 5592 5602 5615 5628 5640 5650 5659 5666 5673 5680 5686 5691 5697 5702 5705 5708 5709 5709 5709 5710 5711 5713 5715 5716 5718 5720 5722 5723 5726 5728 5731 5734 5736 5739 5742
5551 5554 5556 5559 5561 5564 5566 5570 5575 5584 5595 5608 5621 5634 5644 5653 5661 5668 5675 5681 5687 5693 5697 5701 5702 5703 5703 5704 5706 5708 5710 5711 5712 5714 5716 5718 5720 5723 5725 5728 5731 5734 5737
5536 5540 5544 5547 5550 5554 5556 5560 5564 5570 5579 5590 5604 5617 5629 5639 5648 5656 5664 5671 5678 5684 5690 5693 5695 5696 5698 5699 5701 5703 5705 5706 5708 5709 5711 5713 5716 5718 5721 5724 5727 5731 5734